Wetbulb
58.49 58.80 58.89 59.26 57.62 57.16 56.78 57.39 57.98 58.52 59.38 58.92 58.50 60.06 57.53 59.31 60.05 63.21 64.33 64.22 64.07 63.12 62.37 61.44 60.01 58.67 57.80 56.32 56.41 53.39 50.87 48.84 49.19 48.14 48.26 48.54 49.43 48.76 48.03 47.68 46.95 46.91 46.63
57.48 58.13 58.41 59.42 58.72 57.82 58.42 59.63 60.32 60.51 60.31 60.86 61.52 61.21 59.41 59.41 60.59 63.59 64.01 63.46 63.05 62.56 62.25 61.06 59.32 58.87 57.47 56.82 55.10 52.84 50.17 50.09 49.85 47.82 47.78 45.74 45.81 46.94 48.08 46.85 46.93 45.25 45.81
56.36 57.80 58.47 58.68 59.63 58.98 59.35 60.36 61.10 61.26 61.54 62.05 62.17 62.03 60.44 60.08 59.75 62.78 63.24 63.30 63.79 63.02 61.40 61.11 59.78 58.79 57.98 55.85 54.62 52.77 51.04 48.03 48.84 49.33 46.75 43.80 43.26 44.71 46.06 46.19 45.41 45.04 44.35
57.20 58.22 58.50 59.46 59.09 60.28 60.88 61.12 61.00 60.95 61.76 62.39 60.87 60.33 57.80 56.46 59.43 62.01 62.89 63.07 63.60 62.91 61.80 60.99 60.34 59.40 57.60 56.06 54.21 53.61 51.06 49.16 47.51 49.84 50.83 48.84 48.10 42.55 39.79 43.66 44.65 45.28 45.19
57.97 57.41 58.33 59.76 61.30 61.78 61.56 61.77 62.15 62.02 62.48 62.73 62.41 61.10 58.54 58.98 60.06 61.80 62.03 62.23 62.44 62.47 61.37 60.94 59.57 58.15 56.69 54.61 54.09 52.47 50.58 50.06 48.39 47.15 46.76 48.11 48.88 45.96 42.19 38.96 42.35 42.84 43.70
58.14 58.93 59.52 60.11 60.85 61.65 62.20 62.63 62.12 62.30 62.78 62.83 62.52 61.98 59.42 59.92 60.16 60.52 60.96 61.24 61.23 61.87 60.85 59.30 58.04 53.87 52.72 51.72 50.98 51.35 49.97 50.00 49.21 48.57 47.95 48.00 46.73 43.23 41.23 40.10 40.07 40.51 41.99
58.21 58.25 58.98 59.28 59.88 60.44 61.29 62.26 62.18 61.95 62.86 62.99 63.22 62.29 62.17 61.14 60.63 61.23 61.58 60.27 59.88 58.26 56.57 53.91 52.56 52.50 52.30 51.47 50.85 49.89 48.99 48.69 47.44 48.19 48.79 49.51 47.10 46.07 43.94 41.28 38.03 37.06 39.63
58.39 58.82 58.73 60.10 60.58 60.78 61.33 61.68 61.83 61.61 62.41 62.84 63.13 63.35 62.77 62.52 61.99 61.58 60.93 60.27 59.09 56.18 54.06 53.22 52.44 52.11 51.03 49.52 49.18 48.82 47.80 47.86 47.72 47.66 47.50 47.78 46.74 45.53 44.10 41.42 38.61 35.57 36.86
58.33 58.66 59.60 60.05 61.24 61.96 62.18 62.35 62.43 62.39 62.56 62.86 62.86 62.66 63.71 62.00 61.28 61.77 61.58 59.72 57.06 54.00 53.03 52.87 51.95 50.79 49.42 48.64 47.98 47.42 47.07 47.61 47.61 47.21 47.62 45.79 45.72 45.54 44.61 42.84 41.63 38.24 32.72
57.72 58.45 59.72 60.27 61.12 61.82 63.51 64.03 63.71 63.17 63.35 63.51 63.65 63.40 62.00 62.07 61.93 61.85 61.36 58.44 55.12 53.94 53.63 52.80 51.85 49.55 47.91 48.03 47.93 46.89 47.50 47.21 46.50 46.76 45.48 45.65 45.43 44.59 44.31 41.81 40.95 39.72 36.34
57.52 58.12 58.73 59.52 61.26 62.06 61.81 63.53 64.06 63.98 63.88 63.96 63.76 62.86 61.02 59.65 59.51 62.14 60.29 56.58 55.41 54.76 53.45 52.08 49.84 48.37 48.14 47.70 46.46 46.27 46.27 46.29 45.88 44.98 44.96 45.01 45.70 45.28 44.15 41.91 40.64 39.54 38.03
56.80 58.54 59.28 59.70 59.92 60.83 62.57 63.82 64.01 64.43 64.92 64.21 62.47 62.51 62.68 62.74 61.23 59.53 58.26 57.18 55.80 54.62 52.49 51.35 49.73 48.54 47.45 46.79 45.51 45.67 45.98 45.03 43.97 44.79 44.20 43.91 45.43 44.36 44.20 42.20 39.17 38.18 38.42
55.41 58.10 59.24 59.38 59.53 60.33 61.26 62.31 63.79 64.17 64.73 64.57 62.60 62.22 60.87 59.29 58.74 57.54 56.61 55.68 54.62 53.47 52.25 50.23 48.54 46.56 45.55 45.15 45.20 45.66 45.05 44.12 43.95 43.88 43.74 43.38 43.94 43.19 42.67 40.32 39.16 38.56 40.66
54.33 56.14 58.66 59.55 60.30 61.12 61.67 62.16 62.55 63.07 63.02 62.92 60.61 60.49 59.53 58.67 57.64 56.75 54.61 50.18 48.21 46.16 45.83 46.16 46.02 45.46 45.31 45.10 45.05 45.48 44.46 43.71 43.98 43.98 43.37 43.25 44.08 41.20 41.08 41.19 40.50 40.03 38.48
54.04 55.38 58.32 59.55 60.15 60.51 61.14 61.79 61.81 61.63 61.84 60.84 60.10 58.24 58.51 57.90 56.99 55.40 53.39 51.07 48.34 46.52 45.62 44.92 44.62 44.45 44.12 44.84 43.63 43.73 43.15 42.56 41.90 42.24 43.66 43.75 43.20 41.57 40.60 40.62 38.48 38.45 38.07
54.33 55.99 57.69 60.11 60.04 60.52 60.52 60.31 59.56 59.37 59.74 58.62 57.45 57.87 57.61 56.77 55.32 53.32 52.22 50.73 48.70 47.95 45.14 43.78 42.81 42.36 43.28 39.01 41.88 42.49 42.55 42.00 41.78 40.56 42.06 42.25 41.50 41.80 39.99 39.40 38.83 38.59 37.28
55.35 56.89 58.60 59.09 59.64 59.12 58.60 56.86 56.84 57.20 55.77 54.88 54.93 54.34 53.50 51.58 50.46 49.46 47.98 46.55 45.33 44.50 42.59 42.57 42.14 42.48 42.07 40.24 39.36 38.54 40.04 39.40 38.32 39.22 39.77 40.61 41.92 40.43 41.01 39.21 37.54 36.20 36.22
55.51 56.31 55.86 56.16 56.28 56.23 55.52 55.23 55.03 54.00 53.16 52.48 52.06 51.77 50.71 49.26 48.17 46.52 44.28 43.06 42.49 41.67 41.44 41.55 42.21 42.03 42.49 39.09 38.76 36.83 37.83 38.34 39.10 39.40 39.19 39.40 39.58 38.45 37.55 36.72 35.21 35.96 37.12
55.01 54.65 54.69 54.43 53.98 53.52 53.58 52.62 51.64 51.28 50.70 49.97 49.59 49.37 48.76 47.25 46.00 44.56 43.85 43.90 43.08 43.16 43.50 43.06 42.80 42.25 40.54 38.39 37.53 37.30 38.15 39.12 38.21 38.30 37.46 36.74 35.84 35.82 36.04 33.76 32.90 33.82 35.04
53.88 53.12 53.15 52.72 51.99 51.77 51.62 50.29 49.28 48.84 48.13 48.55 48.56 48.79 48.27 46.95 45.38 44.62 43.72 43.95 44.02 43.01 42.90 42.06 41.13 39.14 41.01 38.02 36.35 36.02 33.79 31.81 30.00 31.71 33.08 33.61 33.86 33.66 33.43 30.05 29.00 28.59 30.21
52.46 52.59 51.90 50.72 50.88 51.14 50.44 48.49 48.05 47.03 48.15 48.46 48.05 47.39 45.85 44.63 44.44 43.98 43.80 42.45 41.65 41.32 39.16 39.03 39.74 40.48 35.98 33.23 32.13 31.77 28.59 26.80 26.79 27.31 27.70 28.24 31.91 31.38 30.27 30.73 27.19 26.83 29.04
51.01 51.19 50.17 49.71 50.35 50.42 49.11 47.44 46.19 47.39 47.04 46.28 45.75 44.99 44.62 44.02 43.70 42.37 42.36 42.01 40.30 38.29 36.59 35.29 34.80 35.48 33.04 31.83 30.92 29.52 28.41 28.28 25.62 25.59 26.47 27.42 28.87 28.69 28.96 28.70 29.99 30.91 29.51
49.85 50.66 49.26 48.67 49.26 49.30 48.64 46.21 45.93 46.15 45.50 44.67 43.38 42.58 42.33 42.03 41.59 39.72 38.58 37.68 37.23 34.18 31.41 30.76 31.00 30.93 30.45 29.81 29.23 27.89 27.12 27.09 24.92 25.86 26.76 26.93 26.83 27.62 27.68 30.31 30.81 29.86 29.27
49.27 49.63 48.40 47.52 46.95 48.02 47.75 46.32 45.97 45.29 43.13 40.85 40.06 39.54 38.24 37.97 37.68 36.85 35.91 34.25 30.80 30.11 29.65 29.54 28.16 28.06 27.90 24.58 23.99 23.61 22.99 24.90 24.36 24.13 22.74 23.28 25.24 25.67 25.37 25.96 26.22 25.96 26.48
49.07 48.60 47.12 46.28 45.82 46.02 44.75 44.64 43.88 43.03 40.63 39.19 37.68 36.31 35.94 35.01 33.32 30.23 30.23 28.36 26.35 26.99 27.24 26.25 26.35 23.58 22.58 22.03 22.72 22.34 21.85 21.34 22.78 20.84 21.59 22.83 23.82 22.84 22.50 22.53 23.05 23.25 23.52
48.05 46.93 45.92 44.50 43.29 42.78 42.03 42.34 42.19 40.47 37.93 35.95 34.74 33.07 32.46 31.70 32.67 29.97 27.51 28.60 26.86 26.40 25.89 24.89 24.04 24.16 23.56 22.55 22.70 22.71 23.36 23.72 23.85 21.13 20.33 18.92 18.59 19.20 19.90 19.37 19.71 20.12 20.15
MSLP
1010.17 1011.43 1012.39 1013.45 1014.62 1015.40 1015.87 1016.27 1016.65 1017.02 1017.61 1018.08 1018.48 1018.11 1017.96 1018.15 1018.39 1018.33 1018.15 1018.84 1019.32 1019.35 1019.95 1020.31 1020.72 1021.21 1021.54 1021.73 1022.11 1022.29 1022.65 1023.20 1023.46 1023.77 1023.92 1023.86 1024.19 1024.52 1024.50 1024.62 1025.04 1025.00 1025.30
1009.35 1010.72 1011.63 1012.55 1013.80 1014.72 1015.37 1015.73 1016.01 1016.37 1016.83 1017.25 1017.41 1017.24 1017.28 1017.44 1017.54 1017.55 1017.87 1018.81 1019.75 1018.83 1019.44 1019.98 1020.31 1020.79 1021.40 1021.60 1021.83 1022.28 1022.81 1023.10 1023.42 1023.90 1024.06 1024.00 1024.56 1024.71 1024.42 1024.47 1024.76 1024.88 1025.05
1008.20 1009.63 1010.68 1011.50 1012.40 1013.45 1014.19 1014.58 1014.99 1015.55 1015.96 1016.27 1016.35 1016.48 1016.48 1016.76 1016.89 1017.09 1017.46 1017.67 1018.36 1018.39 1018.81 1019.52 1019.96 1020.56 1020.92 1021.10 1021.58 1022.16 1022.56 1023.13 1023.51 1023.76 1024.31 1024.24 1024.37 1024.37 1024.08 1024.39 1024.62 1024.89 1025.18
1006.85 1008.22 1009.54 1010.37 1011.16 1011.96 1012.88 1013.35 1013.78 1014.22 1014.64 1014.91 1015.11 1015.27 1015.64 1015.96 1015.99 1016.46 1016.99 1017.35 1017.82 1018.11 1018.42 1019.13 1019.68 1020.13 1020.55 1021.00 1021.50 1022.22 1022.64 1022.96 1023.54 1023.92 1024.05 1024.16 1024.44 1024.56 1024.95 1024.44 1024.38 1024.43 1024.83
1005.47 1006.58 1007.84 1008.91 1009.79 1010.75 1011.47 1012.04 1012.51 1013.01 1013.41 1013.90 1014.24 1014.44 1014.77 1015.18 1015.45 1015.56 1016.00 1016.66 1017.33 1017.77 1018.51 1018.90 1019.34 1019.87 1020.40 1021.07 1021.60 1022.26 1022.80 1023.09 1023.66 1024.31 1024.54 1024.45 1024.52 1024.45 1025.03 1024.94 1024.49 1024.58 1024.49
1004.26 1005.23 1006.37 1007.75 1008.80 1009.74 1010.45 1010.98 1011.38 1011.67 1012.18 1012.72 1013.29 1013.78 1014.32 1014.76 1015.16 1015.39 1015.76 1016.13 1016.70 1017.34 1017.80 1018.37 1019.00 1019.86 1020.55 1021.33 1022.40 1022.72 1022.90 1023.29 1023.87 1024.34 1024.66 1024.74 1024.83 1024.09 1024.51 1024.65 1024.40 1024.32 1024.15
1003.47 1004.12 1004.96 1006.02 1007.18 1008.33 1009.22 1009.95 1010.55 1010.88 1011.22 1011.68 1012.25 1012.92 1013.67 1014.28 1014.92 1015.20 1015.25 1015.99 1016.59 1016.91 1017.51 1018.00 1018.68 1019.13 1020.25 1021.15 1021.79 1022.77 1022.87 1023.65 1024.19 1024.23 1024.30 1024.22 1024.19 1023.68 1023.98 1024.13 1024.12 1024.26 1024.10
1002.03 1002.91 1003.52 1004.46 1005.47 1006.62 1007.71 1008.60 1009.27 1009.93 1010.29 1010.76 1011.29 1011.97 1012.30 1013.56 1014.54 1014.88 1014.97 1015.54 1016.26 1016.43 1017.07 1017.96 1019.02 1019.52 1019.69 1020.68 1021.27 1021.71 1022.61 1023.11 1023.45 1024.04 1024.23 1024.11 1023.69 1023.74 1023.83 1024.05 1024.10 1024.36 1024.38
1001.07 1001.68 1002.51 1003.00 1003.99 1005.01 1006.05 1007.06 1007.84 1008.68 1009.35 1009.85 1010.43 1010.88 1011.70 1012.68 1013.68 1014.87 1015.03 1015.33 1016.05 1016.59 1017.17 1018.00 1018.87 1019.70 1020.07 1020.53 1020.87 1021.55 1022.38 1023.09 1023.52 1023.64 1023.74 1023.64 1023.51 1023.82 1024.06 1023.76 1023.86 1024.10 1024.49
1000.52 1001.03 1001.60 1002.02 1002.72 1003.53 1004.41 1005.25 1005.51 1006.02 1007.71 1008.83 1009.44 1010.27 1011.19 1011.86 1013.03 1013.21 1014.45 1015.13 1015.92 1016.54 1017.24 1018.00 1018.75 1019.15 1019.90 1020.47 1020.92 1021.64 1022.29 1022.96 1023.24 1023.30 1023.21 1023.16 1023.39 1023.84 1023.77 1023.32 1023.44 1023.67 1023.75
1000.79 1001.36 1001.62 1001.71 1001.99 1002.39 1002.83 1003.11 1004.33 1005.41 1006.26 1007.51 1008.32 1009.66 1010.58 1011.50 1012.57 1012.80 1013.63 1014.44 1015.69 1016.47 1017.08 1017.78 1018.31 1018.98 1019.79 1020.46 1021.03 1021.62 1022.30 1022.85 1023.01 1022.75 1023.03 1023.44 1023.67 1023.52 1023.15 1023.00 1023.07 1023.44 1023.53
1000.83 1001.37 1001.88 1002.12 1002.28 1002.44 1002.81 1003.55 1004.38 1005.25 1006.13 1006.89 1007.82 1009.47 1010.18 1010.81 1011.56 1012.15 1013.29 1014.28 1015.22 1016.04 1016.69 1017.22 1018.06 1018.86 1019.65 1020.33 1020.75 1021.38 1021.92 1022.22 1022.83 1023.06 1022.95 1023.46 1023.41 1023.17 1022.84 1022.59 1022.60 1022.91 1022.94
1000.65 1001.21 1001.95 1002.46 1002.75 1003.01 1003.34 1003.77 1004.35 1005.14 1005.82 1006.69 1007.78 1009.17 1010.25 1011.47 1011.97 1012.66 1013.72 1014.65 1015.44 1015.95 1016.47 1017.02 1017.89 1018.78 1019.64 1020.28 1020.64 1021.21 1021.69 1022.26 1022.38 1022.51 1023.15 1023.15 1023.21 1022.85 1022.62 1022.29 1022.22 1022.29 1022.22
1000.30 1000.85 1001.65 1002.55 1002.96 1003.47 1003.90 1004.43 1005.05 1005.60 1006.41 1007.22 1008.42 1009.70 1010.98 1012.04 1012.33 1013.35 1014.08 1014.86 1015.61 1016.17 1016.72 1017.29 1017.95 1018.74 1019.50 1020.04 1020.48 1020.93 1021.46 1022.04 1022.41 1022.57 1022.94 1023.02 1022.78 1022.43 1022.22 1021.98 1021.85 1021.74 1021.85
1000.27 1000.94 1001.44 1002.44 1003.28 1004.01 1004.56 1005.13 1005.87 1006.62 1007.40 1008.12 1009.10 1010.35 1011.20 1011.69 1012.59 1013.53 1014.19 1014.86 1015.75 1016.45 1017.07 1017.70 1018.32 1018.93 1019.44 1019.86 1020.27 1020.97 1021.25 1021.77 1022.15 1022.49 1022.73 1022.51 1022.11 1022.07 1021.93 1021.73 1021.44 1021.42 1021.39
1000.71 1001.18 1001.78 1002.72 1003.84 1004.73 1005.36 1006.14 1006.85 1007.47 1008.00 1008.77 1009.62 1010.38 1011.03 1011.84 1012.75 1013.69 1014.37 1015.17 1015.99 1016.48 1017.17 1017.77 1018.34 1018.85 1019.22 1019.63 1020.23 1020.83 1021.33 1021.59 1022.08 1022.41 1022.40 1022.34 1022.11 1021.76 1021.28 1021.00 1020.74 1020.63 1020.56
1001.19 1001.79 1002.25 1003.21 1004.30 1005.25 1006.09 1007.11 1007.72 1008.22 1008.89 1009.70 1010.47 1011.11 1011.90 1012.61 1013.36 1014.21 1014.83 1015.57 1016.20 1016.76 1017.45 1017.90 1018.38 1019.08 1019.59 1019.98 1020.55 1021.05 1021.51 1021.94 1022.20 1022.30 1022.18 1021.98 1021.62 1021.17 1020.75 1020.37 1019.91 1019.52 1019.22
1001.60 1002.62 1003.43 1004.16 1005.00 1005.96 1006.90 1007.72 1008.35 1008.99 1009.53 1010.24 1011.04 1011.75 1012.49 1013.22 1013.98 1014.63 1015.51 1016.27 1016.76 1017.36 1017.82 1018.20 1018.62 1019.09 1019.66 1020.32 1020.88 1021.39 1021.79 1022.09 1022.04 1021.97 1021.79 1021.58 1021.19 1020.78 1020.44 1020.09 1019.69 1019.20 1018.70
1002.07 1003.27 1004.31 1005.08 1005.84 1006.56 1007.31 1008.07 1008.81 1009.45 1010.17 1010.69 1011.48 1012.24 1012.95 1013.70 1014.52 1015.29 1015.92 1016.40 1016.89 1017.31 1017.75 1018.22 1018.63 1019.07 1020.11 1020.61 1021.06 1021.47 1021.72 1021.77 1021.72 1021.64 1021.45 1021.35 1021.19 1021.11 1020.98 1020.78 1020.36 1019.50 1018.49
1002.86 1003.93 1004.96 1005.76 1006.51 1007.23 1007.85 1008.53 1009.26 1009.91 1010.56 1011.17 1011.85 1012.50 1013.21 1014.05 1014.87 1015.67 1016.19 1016.63 1017.07 1017.53 1018.03 1018.77 1019.19 1019.57 1020.07 1020.58 1021.25 1021.52 1021.72 1022.05 1022.33 1022.03 1021.83 1021.63 1021.43 1021.11 1020.98 1020.92 1020.67 1019.78 1018.81
1003.26 1004.43 1005.41 1006.16 1006.90 1007.53 1008.15 1008.93 1009.71 1010.45 1011.08 1011.72 1012.29 1013.00 1013.98 1014.90 1015.50 1016.05 1016.48 1016.99 1017.60 1018.18 1018.75 1019.11 1019.28 1019.49 1020.49 1021.26 1021.70 1021.99 1022.06 1022.41 1022.32 1022.01 1021.74 1021.56 1021.38 1021.13 1020.91 1020.67 1020.20 1019.42 1018.56
1003.74 1004.80 1005.70 1006.49 1007.19 1007.77 1008.39 1009.20 1010.08 1010.83 1011.62 1012.45 1013.15 1013.94 1014.66 1015.28 1015.88 1016.38 1016.75 1016.98 1017.54 1018.34 1018.95 1019.39 1019.76 1020.23 1020.97 1021.47 1021.90 1022.17 1022.50 1022.60 1022.52 1022.32 1021.95 1021.53 1021.28 1020.81 1020.30 1019.87 1019.17 1018.48 1017.85
1004.26 1005.06 1005.98 1006.80 1007.50 1008.12 1008.76 1009.57 1010.53 1011.44 1012.21 1012.91 1013.66 1014.39 1014.86 1015.27 1015.75 1016.39 1016.88 1017.46 1018.17 1018.88 1019.48 1019.90 1020.33 1020.80 1021.01 1021.64 1022.09 1022.29 1022.49 1022.59 1022.62 1022.43 1022.07 1021.68 1021.00 1020.26 1019.55 1019.07 1018.51 1017.74 1017.16
1004.47 1005.46 1006.42 1007.13 1007.74 1008.42 1009.18 1010.16 1011.04 1011.76 1012.61 1013.46 1014.21 1014.86 1015.40 1015.95 1016.39 1017.02 1017.57 1018.47 1019.25 1019.78 1020.20 1020.68 1021.08 1021.44 1021.76 1022.48 1022.76 1022.94 1022.87 1022.79 1022.61 1022.39 1022.14 1021.54 1020.95 1020.13 1019.54 1018.90 1018.62 1018.22 1017.68
1004.73 1005.84 1006.93 1007.93 1008.65 1009.27 1010.14 1010.99 1011.72 1012.30 1013.17 1014.06 1014.83 1015.57 1016.09 1016.60 1017.34 1018.50 1019.22 1019.89 1020.68 1020.90 1021.15 1021.73 1022.04 1022.40 1022.68 1023.39 1023.58 1023.42 1023.12 1022.84 1022.61 1022.38 1022.01 1021.18 1020.41 1020.13 1019.85 1019.41 1019.01 1018.48 1017.86
1005.06 1006.45 1007.66 1008.81 1009.81 1010.59 1011.25 1011.84 1012.38 1013.09 1013.99 1014.87 1015.72 1016.38 1016.84 1017.20 1017.74 1018.82 1019.91 1020.60 1021.08 1021.54 1021.91 1022.22 1022.55 1022.87 1023.16 1023.44 1023.51 1023.35 1022.96 1022.66 1022.34 1022.10 1021.68 1021.14 1020.83 1020.60 1020.23 1019.72 1019.19 1018.78 1018.16
Wind_Speed
21 18 17 19 17 14 15 15 14 13 12 10 12 9 8 7 8 6 9 9 10 8 7 4 6 5 4 5 6 3 5 1 2 2 3 4 6 4 3 4 5 5 6
19 18 19 17 21 19 17 18 17 15 13 10 8 8 8 7 7 5 7 9 17 10 7 6 6 7 4 5 5 5 3 3 5 2 2 3 1 2 5 3 5 4 4
19 19 20 20 19 22 20 18 19 20 17 17 12 11 7 8 9 8 6 5 10 7 8 7 5 6 5 5 6 4 4 4 2 4 1 2 1 2 4 5 4 5 3
18 20 19 19 21 20 20 20 20 20 18 17 12 13 9 9 8 9 8 8 7 6 5 7 6 5 4 3 4 3 2 1 3 2 4 2 2 1 3 2 5 5 5
18 21 22 21 20 19 19 19 18 19 18 17 15 10 10 9 8 4 8 7 6 5 6 5 7 4 4 4 5 3 1 2 3 2 1 2 2 4 4 4 2 1 4
18 19 21 21 19 18 17 17 18 18 17 17 16 12 10 8 6 6 6 7 7 8 6 3 5 7 6 7 3 2 7 4 3 2 0 2 4 2 3 4 5 5 4
15 16 21 21 21 21 20 16 18 18 17 16 15 16 11 11 9 8 9 9 7 6 7 8 9 8 7 7 7 6 6 4 2 1 2 3 7 2 2 2 3 2 3
18 17 17 21 22 23 23 22 22 21 19 16 16 15 20 8 6 7 5 7 8 8 8 5 4 4 9 9 9 7 5 6 3 4 5 5 3 3 2 3 1 3 3
19 20 18 16 19 22 23 23 21 21 18 16 15 15 12 8 6 16 8 5 3 5 7 6 7 9 9 10 8 6 5 3 3 5 8 4 2 3 4 3 3 3 3
1 3 15 15 15 15 22 24 26 24 20 16 14 12 12 13 10 12 10 7 7 7 8 9 10 8 7 8 8 6 5 5 5 6 2 2 1 4 6 3 3 3 5
6 3 3 5 5 13 15 17 17 17 14 15 13 12 11 8 13 13 8 8 7 7 7 9 8 9 9 8 8 7 6 7 7 3 4 2 5 7 5 4 3 4 4
6 6 4 1 3 3 1 11 13 13 12 8 9 12 10 8 7 7 7 7 7 6 8 8 9 9 9 8 9 8 6 7 4 4 4 4 7 10 9 5 6 5 5
6 8 6 5 4 2 1 1 5 6 5 5 6 8 9 5 8 7 6 6 5 4 4 6 8 9 9 9 7 7 6 4 6 4 2 7 10 8 8 6 5 5 6
9 6 10 7 6 5 5 4 5 3 2 3 11 11 11 8 7 7 7 9 7 7 7 8 9 10 9 9 8 8 8 5 4 1 4 9 11 7 8 7 8 7 6
6 5 8 9 9 7 6 7 7 8 5 6 12 11 9 8 8 8 8 8 7 7 7 6 6 7 7 6 8 8 7 6 3 3 7 10 8 11 11 8 8 7 7
6 7 5 12 9 9 9 9 9 6 6 7 9 8 7 9 9 8 8 9 7 7 7 7 7 7 6 12 13 8 5 4 3 4 5 8 13 16 19 17 18 16 13
7 7 8 10 9 10 11 10 9 8 9 9 9 8 8 9 9 8 7 7 7 6 6 6 6 7 6 10 10 7 3 1 3 5 6 10 11 14 12 14 14 15 19
9 8 8 9 11 11 11 10 10 10 10 10 10 9 9 9 8 9 9 8 6 7 5 6 6 6 6 10 8 7 2 3 5 8 10 11 12 8 9 9 9 11 12
11 10 9 10 11 12 12 12 11 11 10 11 10 10 10 10 10 10 8 7 7 5 5 6 6 5 7 8 7 5 3 5 5 6 7 9 11 13 16 12 12 15 15
11 12 12 11 11 11 11 12 11 11 11 10 11 11 11 11 10 10 8 8 7 6 5 7 6 5 1 3 10 2 3 5 4 6 9 12 13 19 19 13 12 15 15
14 13 12 11 11 12 11 12 11 11 11 11 11 11 12 10 9 8 5 5 5 5 5 5 4 4 13 11 16 13 5 2 3 3 5 5 14 19 24 23 14 16 17
16 15 12 11 11 12 12 13 12 12 11 11 11 10 9 7 7 7 6 7 6 6 5 5 3 7 9 13 13 15 12 9 4 6 6 7 20 25 26 20 23 25 20
14 12 12 12 10 11 11 12 12 12 11 11 11 9 8 7 6 6 4 5 6 5 4 3 2 4 4 5 15 15 15 12 6 6 12 22 24 24 16 16 21 16 9
14 12 13 12 11 10 11 12 11 11 11 10 9 7 6 6 6 5 5 7 5 4 3 3 3 4 4 7 7 6 6 8 8 9 10 13 15 13 9 11 12 10 10
12 12 11 10 10 10 11 10 9 10 10 9 8 7 4 6 9 9 7 7 6 5 3 4 4 3 3 5 8 9 7 6 8 10 8 8 6 7 8 9 10 9 10
12 11 11 11 10 10 9 9 9 9 9 9 7 4 4 4 5 7 6 12 11 10 11 9 5 2 6 7 11 14 14 16 16 7 6 4 5 7 9 9 10 10 11
Wind_Direction
144 155 158 151 156 170 168 173 184 184 177 184 198 214 191 200 208 205 192 178 215 170 168 220 138 168 215 186 189 146 140 238 69 10 257 217 191 203 208 172 191 176 155
149 165 160 165 164 170 184 185 185 188 191 189 210 220 194 211 210 176 200 156 227 168 175 211 169 171 221 191 156 157 156 203 165 184 301 279 120 217 211 207 197 185 160
161 169 175 171 171 173 187 193 185 188 194 196 203 214 193 202 207 182 191 215 195 183 178 191 172 175 216 173 164 176 192 181 165 168 155 326 335 216 169 210 194 167 166
171 169 180 182 183 180 185 193 193 195 200 205 208 201 198 208 218 182 187 186 192 201 195 184 192 186 184 166 161 157 197 220 176 165 189 200 140 340 313 196 212 186 177
183 176 181 189 185 185 187 196 197 197 198 202 215 197 198 204 203 196 169 159 148 196 203 225 163 156 125 40 127 115 168 126 99 79 8 14 276 196 208 279 302 225 208
186 183 180 183 190 190 194 194 204 203 206 198 204 222 198 207 214 187 184 175 181 197 174 137 135 103 107 92 67 155 158 125 94 118 185 254 282 230 215 223 236 226 232
190 192 184 184 185 190 191 195 201 214 208 203 197 203 226 202 217 227 195 172 175 161 159 135 158 149 138 162 152 170 125 121 153 49 277 235 258 251 282 294 286 277 300
186 197 201 186 187 188 190 194 199 206 213 204 201 192 202 201 202 248 198 175 199 177 155 131 137 173 148 158 164 143 152 148 153 233 248 265 242 328 297 241 205 302 294
194 193 209 195 187 188 189 192 197 204 211 208 201 203 185 168 149 242 222 160 143 142 145 147 160 186 173 169 159 147 145 148 192 221 240 226 347 330 270 256 220 198 245
74 200 204 202 193 190 186 192 195 193 198 206 197 193 166 172 195 220 223 145 143 151 164 179 194 166 170 164 152 141 136 163 225 232 161 49 328 282 264 251 252 232 204
130 156 297 291 234 201 201 189 186 194 192 199 189 178 191 178 206 212 152 141 152 171 189 190 160 165 174 162 150 147 163 223 229 98 87 20 278 271 264 248 240 247 239
152 151 161 211 284 274 234 154 182 194 198 202 150 164 183 189 145 141 129 136 154 169 181 170 173 174 157 165 158 170 197 181 228 146 82 285 285 268 261 237 231 241 252
202 140 149 159 182 178 166 140 125 151 176 180 120 145 111 116 121 107 115 139 167 171 167 153 155 142 154 170 174 179 188 202 130 108 293 311 283 278 270 268 250 237 249
183 180 161 161 157 149 139 117 95 111 164 106 112 116 117 139 117 120 115 103 104 104 102 120 138 153 164 174 183 181 188 132 145 174 293 279 276 269 270 268 256 255 261
160 192 152 147 138 125 119 113 83 68 80 107 102 110 125 117 119 125 133 126 123 126 129 131 140 157 174 179 165 144 136 162 195 259 271 278 287 302 283 281 272 276 272
178 175 186 135 140 138 122 109 108 105 100 93 96 97 118 128 128 110 109 127 143 141 133 158 166 169 166 146 131 134 161 179 214 246 271 294 296 287 277 265 260 254 256
156 168 135 123 138 121 117 122 126 122 103 100 110 107 101 98 100 107 110 108 112 125 139 148 138 110 117 111 109 106 87 172 240 246 271 274 273 266 267 267 264 261 255
146 140 123 124 119 124 126 130 128 123 126 122 118 115 118 120 118 104 95 98 101 109 115 126 136 143 152 150 158 165 189 240 254 256 263 264 267 279 305 313 304 294 288
135 135 134 133 126 130 136 132 129 124 125 123 125 124 120 116 115 119 125 131 138 135 135 153 163 145 130 159 170 160 239 252 277 312 322 346 341 11 12 348 332 320 308
144 146 138 138 137 137 134 133 130 127 124 123 121 123 124 118 103 91 92 95 94 92 81 69 73 95 120 117 84 62 47 31 5 334 328 325 317 328 335 333 320 304 298
142 143 150 149 147 143 136 129 125 124 123 124 121 106 97 108 119 126 107 103 113 121 127 163 166 156 110 87 77 57 67 50 313 304 312 317 323 329 320 309 298 287 293
155 158 157 149 145 143 138 134 131 125 110 110 115 119 123 130 130 140 162 163 124 119 118 95 78 101 106 103 78 57 40 6 349 327 315 315 321 312 308 306 294 290 288
160 163 151 150 150 145 141 133 130 132 135 132 131 138 146 130 113 99 99 79 82 79 85 84 89 82 102 116 53 33 14 358 338 318 324 322 313 308 306 309 323 318 299
173 161 154 156 146 139 135 131 133 134 132 130 125 118 104 104 99 89 57 76 51 52 61 55 38 45 33 42 25 11 350 342 335 335 317 299 292 288 333 335 336 330 327
162 153 151 146 138 121 120 129 134 135 127 117 111 101 105 103 82 61 39 86 56 52 25 44 39 45 24 39 2 347 333 325 320 315 298 299 316 333 331 330 326 329 328
147 145 134 128 121 119 122 127 123 118 120 118 98 85 76 63 105 121 97 71 118 111 106 100 85 66 84 13 347 335 327 320 312 300 297 318 330 331 328 327 327 328 323